EZY6LM LJLJ-LDSP

Flight info

Callsign EZY6LM
Flight time 0h 39m
Altitude 29000
Route MODRO1Z MODRO DCT SABAD L862 NUPSO
Aircraft A320/M-SDE3FGHIRWY/LB1

Departure

Time 2026-05-07 18:38
Airport Ljubljana Jože Pučnik Airport (LJLJ)

Arrival

Time 2026-05-07 19:18
Airport Split Saint Jerome Airport (LDSP)
Time Latitude Longitude Altitude Speed Heading
2026-05-07 18:14 46.23003 14.45467 1266 ft 0 kts 37°
2026-05-07 18:29 46.22997 14.45461 1257 ft 2 kts 37°
2026-05-07 18:29 46.22982 14.45443 1265 ft 3 kts 41°
2026-05-07 18:29 46.22967 14.45423 1257 ft 3 kts 55°
2026-05-07 18:30 46.22959 14.45399 1262 ft 3 kts 98°
2026-05-07 18:30 46.22961 14.45388 1256 ft 0 kts 121°
2026-05-07 18:32 46.22957 14.45396 1256 ft 3 kts 121°
2026-05-07 18:32 46.22928 14.45402 1255 ft 7 kts 199°
2026-05-07 18:32 46.22874 14.45346 1259 ft 12 kts 217°
2026-05-07 18:32 46.22801 14.45376 1263 ft 15 kts 126°
2026-05-07 18:33 46.22725 14.45527 1259 ft 21 kts 126°
2026-05-07 18:33 46.22626 14.45721 1253 ft 27 kts 127°
2026-05-07 18:33 46.22504 14.45953 1245 ft 26 kts 126°
2026-05-07 18:33 46.22406 14.46151 1238 ft 27 kts 126°
2026-05-07 18:34 46.22285 14.46384 1230 ft 31 kts 127°
2026-05-07 18:34 46.22143 14.46653 1223 ft 36 kts 127°
2026-05-07 18:34 46.22041 14.46859 1218 ft 26 kts 125°
2026-05-07 18:34 46.21926 14.47086 1213 ft 29 kts 127°
2026-05-07 18:35 46.21798 14.47337 1207 ft 34 kts 126°
2026-05-07 18:35 46.21686 14.47560 1202 ft 16 kts 127°
2026-05-07 18:35 46.21590 14.47562 1201 ft 18 kts 213°
2026-05-07 18:35 46.21515 14.47443 1199 ft 4 kts 287°
2026-05-07 18:36 46.21528 14.47403 1199 ft 5 kts 296°
2026-05-07 18:36 46.21537 14.47385 1200 ft 0 kts 306°
2026-05-07 18:37 46.21585 14.47289 1204 ft 44 kts 306°
2026-05-07 18:37 46.21908 14.46659 1225 ft 110 kts 306°
2026-05-07 18:38 46.22469 14.45545 1255 ft 161 kts 305°
2026-05-07 18:38 46.23125 14.44225 1845 ft 162 kts 304°
2026-05-07 18:38 46.23681 14.42839 2515 ft 163 kts 285°
2026-05-07 18:38 46.23678 14.41201 3059 ft 167 kts 246°
2026-05-07 18:39 46.22844 14.40054 3543 ft 177 kts 199°
2026-05-07 18:39 46.21613 14.39790 4014 ft 187 kts 187°
2026-05-07 18:39 46.20267 14.39664 4406 ft 202 kts 186°
2026-05-07 18:39 46.18800 14.39518 4778 ft 219 kts 188°
2026-05-07 18:40 46.17261 14.39264 5410 ft 224 kts 191°
2026-05-07 18:40 46.15708 14.38954 6196 ft 226 kts 191°
2026-05-07 18:40 46.14143 14.38614 6923 ft 229 kts 192°
2026-05-07 18:40 46.12561 14.38260 7662 ft 231 kts 192°
2026-05-07 18:41 46.10961 14.37898 8398 ft 235 kts 192°
2026-05-07 18:41 46.09338 14.37529 9157 ft 237 kts 192°
2026-05-07 18:41 46.07703 14.37161 9923 ft 240 kts 189°
2026-05-07 18:41 46.06016 14.37250 10602 ft 247 kts 170°
2026-05-07 18:42 46.04340 14.38148 10969 ft 271 kts 152°
2026-05-07 18:42 46.02645 14.39590 11235 ft 295 kts 151°
2026-05-07 18:42 46.00813 14.41159 11475 ft 319 kts 151°
2026-05-07 18:42 45.98836 14.42846 11692 ft 342 kts 151°
2026-05-07 18:43 45.96747 14.44625 12209 ft 353 kts 151°
2026-05-07 18:43 45.94621 14.46431 12931 ft 358 kts 152°
2026-05-07 18:43 45.92465 14.48262 13649 ft 363 kts 152°
2026-05-07 18:43 45.90282 14.50119 14336 ft 367 kts 152°
2026-05-07 18:44 45.88081 14.51993 15002 ft 370 kts 152°
2026-05-07 18:44 45.85849 14.53887 15645 ft 374 kts 152°
2026-05-07 18:44 45.83599 14.55789 16296 ft 377 kts 153°
2026-05-07 18:44 45.81329 14.57701 16925 ft 381 kts 153°
2026-05-07 18:45 45.79030 14.59634 17528 ft 385 kts 153°
2026-05-07 18:45 45.76706 14.61584 18128 ft 389 kts 153°
2026-05-07 18:45 45.74355 14.63554 18682 ft 393 kts 153°
2026-05-07 18:45 45.71984 14.65539 19239 ft 396 kts 154°
2026-05-07 18:46 45.69601 14.67535 19815 ft 399 kts 154°
2026-05-07 18:46 45.67200 14.69542 20387 ft 401 kts 154°
2026-05-07 18:46 45.64779 14.71565 20942 ft 404 kts 155°
2026-05-07 18:46 45.62343 14.73604 21492 ft 407 kts 155°
2026-05-07 18:47 45.59895 14.75652 22001 ft 410 kts 155°
2026-05-07 18:47 45.57418 14.77724 22546 ft 414 kts 155°
2026-05-07 18:47 45.54925 14.79805 23098 ft 416 kts 156°
2026-05-07 18:47 45.52418 14.81892 23605 ft 419 kts 156°
2026-05-07 18:48 45.49890 14.83991 24029 ft 421 kts 156°
2026-05-07 18:48 45.47348 14.86103 24440 ft 425 kts 156°
2026-05-07 18:48 45.44778 14.88203 24836 ft 427 kts 157°
2026-05-07 18:48 45.42173 14.90236 25241 ft 429 kts 158°
2026-05-07 18:49 45.39526 14.92238 25642 ft 431 kts 159°
2026-05-07 18:49 45.36857 14.94224 26021 ft 434 kts 159°
2026-05-07 18:49 45.34168 14.96223 26393 ft 437 kts 159°
2026-05-07 18:49 45.31471 14.98243 26763 ft 440 kts 159°
2026-05-07 18:50 45.28756 15.00293 27125 ft 443 kts 159°
2026-05-07 18:50 45.26027 15.02368 27494 ft 446 kts 159°
2026-05-07 18:50 45.23280 15.04458 27841 ft 449 kts 159°
2026-05-07 18:50 45.20552 15.06528 28164 ft 451 kts 159°
2026-05-07 18:51 45.17737 15.08658 28495 ft 454 kts 159°
2026-05-07 18:51 45.14948 15.10761 28817 ft 456 kts 159°
2026-05-07 18:51 45.12134 15.12882 29016 ft 457 kts 159°
2026-05-07 18:52 45.06642 15.17034 29035 ft 443 kts 159°
2026-05-07 18:52 45.01207 15.21105 29043 ft 441 kts 159°
2026-05-07 18:53 44.95779 15.25134 29039 ft 440 kts 159°
2026-05-07 18:53 44.90386 15.29124 29043 ft 440 kts 159°
2026-05-07 18:54 44.84925 15.33157 29044 ft 440 kts 159°
2026-05-07 18:54 44.79541 15.37127 29047 ft 440 kts 159°
2026-05-07 18:55 44.74117 15.41122 29031 ft 440 kts 159°
2026-05-07 18:55 44.71363 15.43147 29062 ft 451 kts 159°
2026-05-07 18:55 44.68563 15.45200 29060 ft 455 kts 159°
2026-05-07 18:56 44.62941 15.49317 28261 ft 456 kts 159°
2026-05-07 18:56 44.60138 15.51369 27566 ft 453 kts 159°
2026-05-07 18:56 44.57353 15.53411 26943 ft 449 kts 158°
2026-05-07 18:56 44.54600 15.55432 26316 ft 446 kts 158°
2026-05-07 18:57 44.51860 15.57439 25718 ft 442 kts 158°
2026-05-07 18:57 44.49149 15.59417 25248 ft 436 kts 158°
2026-05-07 18:57 44.46475 15.61365 24767 ft 430 kts 158°
2026-05-07 18:57 44.43831 15.63290 24300 ft 425 kts 158°
2026-05-07 18:58 44.41226 15.65178 23836 ft 421 kts 159°
2026-05-07 18:58 44.38639 15.67049 23316 ft 416 kts 158°
2026-05-07 18:58 44.36077 15.68902 22770 ft 412 kts 158°
2026-05-07 18:58 44.33536 15.70737 22230 ft 409 kts 158°
2026-05-07 18:59 44.31017 15.72553 21718 ft 406 kts 158°
2026-05-07 18:59 44.28515 15.74357 21186 ft 403 kts 158°
2026-05-07 18:59 44.26027 15.76147 20679 ft 400 kts 158°
2026-05-07 18:59 44.23562 15.77918 20177 ft 398 kts 158°
2026-05-07 19:00 44.21101 15.79688 19681 ft 396 kts 157°
2026-05-07 19:00 44.18697 15.81421 19211 ft 394 kts 157°
2026-05-07 19:00 44.16268 15.83169 18732 ft 391 kts 157°
2026-05-07 19:00 44.13860 15.84899 18254 ft 389 kts 157°
2026-05-07 19:01 44.11459 15.86623 17727 ft 387 kts 157°
2026-05-07 19:01 44.09075 15.88334 17190 ft 385 kts 157°
2026-05-07 19:01 44.06701 15.90039 16665 ft 382 kts 156°
2026-05-07 19:01 44.04381 15.91706 16158 ft 368 kts 157°
2026-05-07 19:02 44.02142 15.93313 15654 ft 354 kts 157°
2026-05-07 19:02 43.99994 15.94849 15159 ft 342 kts 157°
2026-05-07 19:02 43.97908 15.96341 14673 ft 331 kts 157°
2026-05-07 19:02 43.95888 15.97784 14200 ft 323 kts 157°
2026-05-07 19:03 43.93879 15.99212 13708 ft 326 kts 157°
2026-05-07 19:03 43.91862 16.00645 13159 ft 323 kts 156°
2026-05-07 19:03 43.89892 16.02051 12649 ft 314 kts 156°
2026-05-07 19:03 43.87903 16.03304 12135 ft 313 kts 167°
2026-05-07 19:04 43.85777 16.03795 11628 ft 309 kts 182°
2026-05-07 19:04 43.83667 16.03476 11125 ft 300 kts 194°
2026-05-07 19:04 43.81650 16.02942 10639 ft 291 kts 193°
2026-05-07 19:04 43.79708 16.02437 10171 ft 289 kts 193°
2026-05-07 19:05 43.77696 16.01916 9656 ft 291 kts 193°
2026-05-07 19:05 43.75726 16.01405 9133 ft 291 kts 193°
2026-05-07 19:05 43.73747 16.00889 8597 ft 284 kts 193°
2026-05-07 19:05 43.71801 16.00379 8102 ft 285 kts 193°
2026-05-07 19:06 43.69846 15.99864 7600 ft 286 kts 193°
2026-05-07 19:06 43.66643 15.99026 6773 ft 274 kts 192°
2026-05-07 19:06 43.64797 15.98549 6288 ft 265 kts 192°
2026-05-07 19:07 43.63013 15.98089 5807 ft 257 kts 192°
2026-05-07 19:07 43.61298 15.97644 5427 ft 245 kts 192°
2026-05-07 19:07 43.59633 15.97212 5059 ft 243 kts 191°
2026-05-07 19:07 43.57969 15.96780 4682 ft 243 kts 191°
2026-05-07 19:08 43.56313 15.96354 4295 ft 241 kts 190°
2026-05-07 19:08 43.54670 15.95925 4029 ft 236 kts 190°
2026-05-07 19:08 43.53073 15.95506 4022 ft 233 kts 190°
2026-05-07 19:08 43.51473 15.95089 4018 ft 234 kts 190°
2026-05-07 19:09 43.49911 15.94576 4015 ft 224 kts 199°
2026-05-07 19:09 43.48546 15.93661 4020 ft 216 kts 211°
2026-05-07 19:09 43.47374 15.92366 4017 ft 217 kts 224°
2026-05-07 19:09 43.46319 15.90866 4015 ft 218 kts 224°
2026-05-07 19:10 43.45190 15.89495 4004 ft 216 kts 208°
2026-05-07 19:10 43.43787 15.88901 3760 ft 211 kts 179°
2026-05-07 19:10 43.42377 15.89317 3458 ft 208 kts 152°
2026-05-07 19:10 43.41285 15.90605 3253 ft 209 kts 126°
2026-05-07 19:11 43.40759 15.92445 3063 ft 213 kts 101°
2026-05-07 19:11 43.40559 15.94455 2891 ft 212 kts 102°
2026-05-07 19:11 43.40357 15.96460 2809 ft 211 kts 101°
2026-05-07 19:11 43.40154 15.98456 2816 ft 210 kts 101°
2026-05-07 19:12 43.39952 16.00444 2817 ft 209 kts 100°
2026-05-07 19:12 43.39756 16.02427 2817 ft 210 kts 97°
2026-05-07 19:12 43.39926 16.04434 2818 ft 215 kts 73°
2026-05-07 19:12 43.40679 16.06154 2814 ft 205 kts 55°
2026-05-07 19:13 43.41523 16.07633 2839 ft 188 kts 56°
2026-05-07 19:13 43.42291 16.08991 2836 ft 174 kts 57°
2026-05-07 19:13 43.43019 16.10288 2826 ft 169 kts 58°
2026-05-07 19:13 43.43733 16.11566 2814 ft 166 kts 58°
2026-05-07 19:14 43.44435 16.12823 2832 ft 167 kts 57°
2026-05-07 19:14 43.45140 16.14088 2833 ft 167 kts 58°
2026-05-07 19:14 43.45844 16.15358 2653 ft 167 kts 57°
2026-05-07 19:14 43.46553 16.16636 2329 ft 169 kts 58°
2026-05-07 19:15 43.47256 16.17894 2057 ft 161 kts 57°
2026-05-07 19:15 43.47922 16.19083 1834 ft 151 kts 58°
2026-05-07 19:15 43.48553 16.20213 1660 ft 144 kts 59°
2026-05-07 19:15 43.49141 16.21264 1433 ft 139 kts 56°
2026-05-07 19:16 43.49726 16.22315 1242 ft 137 kts 57°
2026-05-07 19:16 43.50305 16.23354 1059 ft 138 kts 57°
2026-05-07 19:16 43.50903 16.24411 893 ft 138 kts 52°
2026-05-07 19:16 43.51497 16.25445 740 ft 139 kts 52°
2026-05-07 19:17 43.52071 16.26491 538 ft 140 kts 52°
2026-05-07 19:17 43.52647 16.27548 318 ft 138 kts 50°
2026-05-07 19:17 43.53228 16.28592 115 ft 136 kts 51°
2026-05-07 19:17 43.53786 16.29578 81 ft 112 kts 51°
2026-05-07 19:18 43.54041 16.30069 62 ft 9 kts 82°
2026-05-07 19:18 43.54000 16.30100 62 ft 9 kts 191°
2026-05-07 19:18 43.53954 16.30077 66 ft 5 kts 195°
2026-05-07 19:18 43.53936 16.30070 66 ft 1 kts 195°
2026-05-07 19:19 43.53934 16.30069 66 ft 2 kts 195°
2026-05-07 19:19 43.53920 16.30063 68 ft 1 kts 198°
2026-05-07 19:20 43.53910 16.30057 68 ft 6 kts 206°
2026-05-07 19:20 43.53871 16.29996 68 ft 10 kts 232°
2026-05-07 19:20 43.53821 16.29907 66 ft 14 kts 232°
2026-05-07 19:20 43.53761 16.29801 61 ft 9 kts 209°
2026-05-07 19:21 43.53745 16.29827 64 ft 3 kts 109°
2026-05-07 19:21 43.53738 16.29847 68 ft 2 kts 113°
2026-05-07 19:21 43.53734 16.29859 68 ft 1 kts 113°
2026-05-07 19:21 43.53728 16.29879 66 ft 1 kts 115°